SCP
0 0 0 0 0 0 0 0 0 0 0 0 0 0 0 0 0 0 0 0 0 0 0 0 0 0 0 0 0 0 0 0 0 0 0 0 0 -0 -0 -0 -0 0 0 0
0 0 0 0 0 0 0 0 0 0 0 0 0 0 0 0 0 0 0 0 0 0 0 0 0 0 0 0 0 0 0 0 0 0 0 0 0 0 -0 -0 -0 -0 0 0
0 0 0 0 0 0 0 0 0 0 0 0 0 0 0 0 0 0 0 0 0 0 0 0 0 0 0 0 0 0 0 0 0 0 0 0 0 0 0 0 -0 -0 -0 -0
0 0 0 0 0 0 0 0 0 0 0 0 0 0 0 0 0 0 0 0 0 0 0 0 0 0 0 0 0 0 0 0 0 0 0 0 0 0 0 0 0 0 0 -0
0 0 0 0 0 0 0 0 0 0 0 0 0 0 0 0 0 0 0 0 0 0 0 0 0 0 0 0 0 0 0 0 0 0 0 0 0 0 0 0 0 0 0 0
0 0 0 0 0 0 0 0 0 0 0 0 0 0 0 0 0 0 0 0 0 0 0 0 0 0 0 0 0 0 0 0 0 0 0 0 0 0 0 0 0 0 0 0
0 0 0 0 0 0 0 0 0 0 0 0 0 0 0 0 0 0 0 0 0 0 0 0 0 0 0 0 0 0 0 0 0 0 0 0 0 0 0 0 0 0 0 0
0 0 0 0 0 0 0 0 0 0 0 0 0 0 0 0 0 0 0 0 0 0 0 0 0 0 0 0 0 0 0 0 0 0 0 0 0 0 0 0 0 0 0 0
0 0 0 0 0 0 0 0 0 0 0 0 0 0 0 0 0 0 0 0 0 0 0 0 0 0 0 0 0 0 0 0 0 0 0 0 0 0 0 0 0 0 0 0
0 0 0 0 0 0 0 0 0 0 0 0 0 0 0 0 0 0 0 0 0 0 0 0 0 0 0 0 0 0 0 0 0 0 0 0 0 0 0 0 0 0 0 0
0 0 0 0 0 0 0 0 0 0 0 0 0 0 0 0 0 0 0 0 0 0 0 0 0 0 0 0 0 0 0 0 0 0 0 0 0 0 0 0 0 0 0 0
0 0 0 0 0 0 0 0 0 0 0 0 0 0 0 0 0 0 0 0 0 0 0 0 0 0 0 0 0 0 0 0 0 0 0 0 0 0 0 0 0 0 0 0
0 0 0 0 0 0 0 0 0 0 0 0 0 0 0 0 0 0 0 0 0 0 0 0 0 0 0 0 0 0 0 0 0 0 0 0 0 0 0 0 0 0 0 0
0 0 0 0 0 0 0 0 0 0 0 0 0 0 0 0 0 0 0 0 0 0 0 0 0 0 0 0 0 0 0 0 0 0 0 0 0 0 0 0 0 0 0 0
0 0 0 0 0 0 0 0 0 0 0 0 0 0 0 0 0 0 0 0 0 0 0 0 0 0 0 0 0 0 0 0 0 0 0 0 0 0 0 0 0 0 0 0
0 0 0 0 0 0 0 0 0 0 0 0 0 0 0 0 0 0 0 0 0 0 0 0 0 0 0 0 0 0 0 0 0 0 0 0 0 0 0 0 0 0 0 0
0 0 0 0 0 0 0 0 0 0 0 0 0 0 0 0 0 0 0 0 0 0 0 0 0 0 0 0 0 0 0 0 0 0 0 0 0 0 0 0 -0 0 0 0
0 0 0 0 0 0 0 0 0 0 0 0 0 0 0 0 0 0 0 0 0 0 0 0 0 0 0 0 0 0 0 0 0 0 0 0 0 0 0 0 -0 0 0 0
0 0 0 0 0 0 0 0 0 0 0 0 0 0 0 0 0 0 0 0 0 0 0 0 0 0 0 0 0 0 0 0 0 0 0 0 0 0 0 0 0 -0 -0 0
0 0 0 0 0 0 0 0 0 0 0 0 0 0 0 0 0 0 0 0 0 0 0 0 0 0 0 0 0 0 0 0 0 0 0 0 0 0 0 0 0 0 -0 -0
0 0 0 0 0 0 0 0 0 0 0 0 0 0 0 0 0 0 0 0 0 0 0 0 0 0 0 0 0 0 0 0 0 0 0 0 0 0 0 0 0 0 0 0
0 0 0 0 0 0 0 0 0 0 0 0 0 0 0 0 0 0 0 0 0 0 0 0 0 0 0 0 0 0 0 0 0 0 0 0 0 0 0 0 0 0 0 0
0 0 0 0 0 0 0 0 0 0 0 0 0 0 0 0 0 0 0 0 0 0 0 0 0 0 0 0 0 0 0 0 0 0 0 0 0 0 0 0 0 0 0 0
0 0 0 0 0 0 0 0 0 0 0 0 0 0 0 0 0 0 0 0 0 0 0 0 0 0 0 0 0 0 0 0 0 0 0 0 0 0 0 0 0 0 0 0
0 0 0 0 0 0 0 0 0 0 0 0 0 0 0 0 0 0 0 0 0 0 0 0 0 0 0 0 0 0 0 0 0 0 0 0 0 0 0 0 0 0 0 0
0 0 0 0 0 0 0 0 0 0 0 0 0 0 0 0 0 0 0 0 0 0 0 0 0 0 0 0 0 0 0 0 0 0 0 0 0 0 0 0 0 0 0 0
Wind_Speed
0 3 3 6 6 4 3 2 2 3 3 4 4 4 6 7 6 6 6 7 7 8 7 6 6 7 6 5 5 5 5 5 4 3 3 2 2 1 2 2 3 3 3 4
3 2 7 5 3 3 3 1 1 2 2 3 4 4 6 7 9 9 10 9 8 7 5 6 6 6 6 6 5 5 6 5 5 3 3 3 3 1 1 1 2 3 3 3
4 5 4 3 3 3 2 4 4 3 1 1 2 2 3 4 5 6 8 8 9 10 10 8 7 7 6 6 7 6 6 5 5 5 4 3 3 2 2 2 1 1 2 3
3 4 2 2 2 4 4 4 4 3 2 2 3 2 6 5 5 7 8 8 9 9 9 8 8 7 7 6 6 6 6 5 5 6 5 5 4 2 2 1 1 1 2 3
3 2 2 2 4 3 4 4 3 3 2 1 2 2 6 3 6 9 9 10 10 10 10 10 10 9 7 6 6 6 5 5 5 5 6 6 4 3 1 1 2 1 1 2
4 2 2 3 2 2 1 2 3 2 3 2 5 4 5 5 9 9 9 10 10 10 10 10 9 7 5 5 5 5 6 4 4 5 6 6 6 4 3 2 2 1 1 1
2 3 1 1 2 2 4 4 3 3 1 5 3 3 7 8 8 10 11 10 9 9 9 9 9 8 7 6 6 6 6 4 4 5 5 5 6 6 6 4 3 3 1 1
2 3 3 2 4 3 2 6 6 4 4 4 1 4 6 5 5 6 7 8 8 9 9 10 10 9 8 8 7 6 6 5 5 5 4 4 5 4 3 4 4 4 3 2
4 4 4 4 3 5 2 3 5 4 2 1 3 3 4 3 1 2 5 7 8 9 9 9 9 9 9 8 8 8 7 5 5 5 5 4 4 4 4 4 4 3 3 3
4 3 3 2 1 0 4 4 3 3 1 2 3 2 3 3 2 2 5 7 8 8 8 9 9 9 8 8 7 7 7 6 5 5 5 4 4 4 4 4 5 4 4 3
3 3 2 0 3 4 1 2 3 3 3 4 2 5 5 7 6 6 6 7 8 9 9 9 8 8 8 7 7 7 6 6 5 5 4 4 4 4 4 4 4 4 3 4
2 4 2 5 5 4 4 4 5 4 2 3 2 6 5 4 4 5 5 6 7 8 8 8 8 7 7 7 6 7 6 6 6 5 5 5 4 4 4 4 3 3 3 3
3 4 2 4 4 2 2 3 4 4 3 3 3 6 3 1 1 3 5 6 5 6 7 6 6 6 7 7 7 7 6 6 5 5 5 5 5 5 5 4 4 4 4 3
4 4 5 6 5 4 4 4 3 4 4 4 6 5 3 2 2 2 3 5 5 6 7 7 6 6 6 7 7 7 6 6 6 6 5 5 5 6 5 4 4 4 4 4
4 3 3 5 5 4 5 6 6 6 7 7 6 6 6 6 5 3 4 5 5 5 6 7 7 7 6 6 6 6 6 5 6 6 6 6 5 5 5 5 4 4 4 4
2 2 0 3 4 4 5 6 7 7 6 5 4 5 5 4 3 3 4 5 5 5 7 7 7 7 7 7 7 6 6 6 6 6 6 6 5 5 5 5 4 4 4 3
1 3 1 3 4 3 5 6 6 5 5 7 7 7 3 3 5 6 5 5 6 6 6 7 7 8 8 8 8 8 7 6 6 6 6 6 6 6 5 5 5 4 4 3
4 3 2 1 1 5 7 4 3 4 3 3 4 4 5 5 5 5 5 5 5 5 5 6 6 6 6 6 6 6 6 6 6 6 6 6 6 6 5 5 5 4 3 4
6 6 3 2 3 6 6 3 2 3 2 1 2 3 2 1 1 1 1 4 5 5 5 5 6 6 6 6 6 6 6 7 7 7 7 7 7 7 6 6 5 4 4 3
4 5 4 3 3 6 6 5 3 3 3 2 2 3 2 2 2 4 3 1 3 3 3 4 4 4 5 5 6 7 7 7 7 8 7 7 7 8 8 7 5 4 4 4
2 2 4 4 4 7 6 4 2 3 5 3 2 3 3 3 5 4 2 1 1 2 3 4 5 5 5 5 7 7 7 7 7 6 7 7 7 7 7 6 5 5 5 4
4 3 4 4 4 7 4 1 2 4 3 2 2 2 2 2 1 1 2 2 1 1 2 3 4 4 4 5 6 6 6 6 5 5 6 7 6 6 5 6 5 5 6 5
4 6 5 6 6 4 2 3 3 2 2 1 1 2 2 1 2 2 2 2 2 2 2 3 4 4 3 5 6 6 5 4 5 5 5 6 6 5 5 6 6 5 5 4
3 1 2 2 4 4 3 2 2 1 1 2 2 2 2 2 3 3 3 3 2 2 2 2 4 4 4 4 5 5 4 5 5 5 4 4 5 4 4 4 5 5 6 5
5 1 1 3 4 4 4 2 3 3 2 2 1 1 3 3 3 3 3 3 3 2 2 2 4 5 5 4 4 3 4 5 5 5 4 4 4 5 4 4 4 6 6 8
4 4 4 6 5 4 7 6 3 2 3 3 2 3 3 3 3 3 3 3 3 3 2 2 3 5 5 5 4 4 4 6 6 4 4 4 4 3 3 4 2 3 4 7
Wind_Direction
169 97 191 209 202 203 180 184 207 228 207 166 189 207 207 202 189 187 186 188 187 190 192 177 168 157 149 149 147 140 135 134 127 116 110 101 88 67 59 65 75 74 78 82
35 253 231 210 204 206 184 171 238 256 212 178 198 229 218 200 195 190 189 192 190 185 176 176 170 162 161 165 164 152 150 151 149 140 138 137 132 119 112 67 61 69 82 85
192 243 226 196 189 186 206 185 206 209 254 259 140 288 253 231 211 201 196 191 189 185 182 179 174 172 166 169 170 165 165 159 154 140 115 93 72 54 45 39 38 40 87 92
236 244 214 187 211 174 222 217 193 179 155 246 179 241 263 224 213 207 203 194 193 191 181 177 175 175 176 179 170 161 164 157 155 145 137 137 138 150 185 185 165 66 77 94
250 230 174 209 236 194 216 214 196 193 167 263 234 196 271 210 218 220 210 200 196 192 182 179 177 179 176 168 161 161 159 157 160 154 150 146 149 165 162 139 120 92 52 80
247 253 180 206 239 188 145 45 25 46 79 270 229 187 265 218 214 211 207 203 197 189 185 181 176 168 164 160 153 152 155 164 166 158 155 155 160 159 151 150 142 131 86 64
299 290 244 146 46 10 77 85 37 356 347 256 221 178 245 233 213 199 197 199 194 180 175 171 166 164 163 161 160 158 157 161 165 157 162 168 169 168 171 171 167 157 148 142
186 259 234 194 174 190 186 147 161 196 225 273 283 220 254 253 210 195 189 184 177 173 173 174 175 173 170 166 163 162 166 167 165 161 167 170 170 173 175 176 170 172 173 176
179 241 254 214 188 158 173 203 183 161 232 261 272 280 318 13 67 169 169 168 176 177 174 175 175 173 171 171 173 172 167 164 168 170 166 168 174 172 174 173 168 167 170 166
162 218 260 241 78 179 176 172 106 121 174 259 287 259 239 240 226 185 170 176 183 178 175 175 175 176 175 175 175 170 168 170 170 167 171 170 168 165 165 164 168 172 170 158
144 173 275 102 183 206 188 151 132 142 166 167 243 267 232 208 203 189 188 180 183 180 178 177 178 178 174 169 169 171 173 168 166 171 170 158 161 157 154 159 169 169 163 160
130 130 209 247 251 202 182 182 150 156 228 181 190 263 278 201 189 178 186 180 182 180 177 175 174 170 170 170 174 175 177 176 176 172 162 162 158 151 152 159 164 154 149 158
124 109 91 332 328 321 229 202 168 151 149 183 199 262 309 12 195 181 175 174 178 174 167 165 164 170 175 177 178 177 181 182 175 165 158 156 155 155 159 161 152 141 136 137
111 123 168 197 222 229 239 240 198 153 176 213 222 238 287 284 257 229 180 173 175 174 171 167 170 177 180 182 181 180 185 180 171 164 160 163 168 168 167 156 147 146 142 140
101 160 215 236 250 240 247 244 222 205 197 201 225 222 235 232 219 210 192 172 164 168 171 176 179 181 182 183 187 185 182 176 169 164 167 174 171 164 155 146 150 150 148 148
94 160 217 290 281 279 269 258 234 222 211 211 216 245 236 216 193 192 189 172 166 176 182 182 181 181 185 187 189 187 181 177 166 170 176 171 162 160 157 157 154 147 147 141
143 133 121 273 298 331 270 246 224 218 214 194 213 234 209 189 192 194 189 182 178 185 186 184 186 189 192 191 188 185 183 170 165 171 172 168 164 163 166 163 153 155 161 152
161 142 154 225 3 241 246 258 210 200 224 215 205 207 189 197 210 196 176 177 188 189 191 191 190 191 192 187 182 177 168 163 168 173 174 171 166 165 162 159 162 167 163 158
166 151 152 165 219 270 287 284 215 189 245 264 192 198 196 171 55 307 220 183 187 186 185 192 190 186 180 178 176 165 169 171 174 180 182 180 175 169 167 169 175 173 158 158
130 131 144 169 199 234 249 279 257 139 237 284 173 178 177 97 138 250 277 246 193 175 168 173 172 166 170 181 169 163 173 175 185 190 187 182 178 175 177 180 178 174 165 170
114 138 177 194 221 254 262 285 60 150 240 271 188 184 175 189 210 229 235 231 179 172 170 165 158 162 180 178 166 170 177 191 195 186 179 178 182 182 181 176 170 164 163 159
180 181 195 175 207 247 292 55 155 227 249 221 194 206 209 239 260 207 192 192 166 141 160 156 155 170 176 167 163 169 188 194 176 169 175 179 181 183 177 168 169 164 158 157
195 190 189 195 214 243 249 189 223 204 213 235 209 225 190 208 225 201 199 198 194 182 172 166 160 165 170 169 167 175 191 170 158 160 176 181 178 179 171 169 169 167 166 167
277 189 163 240 262 273 281 296 328 338 246 243 215 212 198 218 207 201 198 198 202 203 180 170 157 161 179 182 178 179 172 159 155 162 172 173 171 173 169 174 174 175 179 179
245 236 194 255 275 307 310 312 310 326 324 292 299 261 224 212 213 205 207 211 213 215 198 173 171 176 184 181 179 167 159 155 156 164 166 173 176 176 173 179 189 191 197 191
225 198 195 234 240 236 267 275 277 276 283 274 289 300 280 224 210 217 217 216 207 203 194 187 179 178 180 175 174 170 164 162 161 168 173 174 174 177 176 174 187 212 203 202